Погода в Высокогорье

Россия / Кировская область     58°14′27″N   47°11′37″E
темп.,
°C
ветер,
м/с
пор.,
м/с
влажн.,
%
обл.,
%
осадки,
мм/ч
давл.,
гПа
погр.,
м
12 августа, пт
пт1200:00+13з2479100 0.0 102268
03:00+12зюз3881100 0.0 1022165
06:00+14зюз3107595 0.0 1022285
09:00+20з595478 0.0 1021689
12:00+23з6944100 0.0 10201374
15:00+24з59448 0.0 10191616
18:00+22з495659 0.0 1018623
21:00+17з310800 0.0 1019207
13 августа, сб
сб1300:00+15з310870 0.0 1019197
03:00+13сз37962 0.0 1020138
06:00+15сз25825 0.0 1021139
09:00+20зсз24555 0.0 1021705
12:00+23сз47445 0.0 10211572
15:00+24сз47425 0.0 10202193
18:00+21ссз246512 0.0 1020101
21:00+16с228022 0.0 102121
14 августа, вс
вс1400:00+15с118470 0.0 102111
03:00+16ссв128045 0.0 102142
06:00+15юв117497 0.0 102135
09:00+17всв127299 0.0 1021148
12:00+19всв226674 0.0 1021303
15:00+23с12545 0.0 1021822
18:00+21с237452 0.1 102181
21:00+16с22885 0.1 102119
15 августа, пн
пн1500:00+13св24925 0.0 102266
03:00+12всв23921 0.0 102350
06:00+14св23792 0.0 1024102
09:00+19всв23550 0.0 1024493
12:00+23св22420 0.0 10241346
15:00+24св22360 0.0 10241618
18:00+20всв22580 0.0 102417
21:00+15всв22680 0.0 102511
16 августа, вт
вт1600:00+13в11700 0.0 102610
03:00+12вюв01760 0.0 102710
06:00+14св11720 0.0 102728
09:00+21в11490 0.0 1027430
12:00+25всв11395 0.0 10271390
15:00+25всв123838 0.0 10261931
18:00+22юв11588 0.0 102611
21:00+17ю11665 0.0 102711